GW2055 Weather Reports


Display with metric or nautical units.
time (UTC)temp
F
wind
direction
speed
MPH
gust
MPH
rain 1hr
in
rain 24hr
in
rain mn
in
humidity
%
barometer
mb
20260904043111 82 0 0.0 0.0 0.00 0.00 0.00 68 1012.7
20260904041600 82 0 0.0 0.0 0.00 0.00 0.00 67 1012.6
20260904040110 83 0 0.0 0.0 0.00 0.00 0.00 66 1012.6
20260904034601 83 0 0.0 0.0 0.00 0.00 0.00 64 1012.7
20260904033105 84 0 0.0 0.0 0.00 0.00 0.00 63 1012.8
20260904031611 84 0 0.0 0.0 0.00 0.00 0.00 62 1012.5
20260904030058 85 0 0.0 0.0 0.00 0.00 0.00 62 1012.3
20260904024603 86 0 0.0 0.0 0.00 0.00 0.00 60 1012.1
20260904023109 86 0 0.0 0.0 0.00 0.00 0.00 59 1011.9
20260904021604 87 0 0.0 0.0 0.00 0.00 0.00 58 1011.7
20260904020101 88 0 0.0 0.0 0.00 0.00 0.00 56 1011.6
20260904014609 89 0 0.0 0.0 0.00 0.00 0.00 55 1011.3
20260904013100 89 0 0.0 2.0 0.00 0.00 0.00 54 1011.2
20260904011602 90 0 0.0 1.0 0.00 0.00 0.00 53 1011.0
20260904010100 91 0 0.0 2.0 0.00 0.00 0.00 51 1011.0
20260904004606 92 0 0.0 3.0 0.00 0.00 0.00 50 1010.9
20260904003100 92 0 0.0 4.0 0.00 0.00 0.00 49 1010.9
20260904001609 93 0 1.0 8.0 0.00 0.00 0.00 48 1010.9
20260904000108 95 121 1.0 6.0 0.00 0.00 0.00 47 1010.8
20260903234603 95 119 1.0 7.0 0.00 0.00 0.00 46 1010.7
20260903233104 96 184 1.0 8.0 0.00 0.00 0.00 46 1010.6
20260903231558 96 148 1.0 9.0 0.00 0.00 0.00 47 1010.6
20260903230105 96 32 2.0 10.0 0.00 0.00 0.00 45 1010.6
20260903224559 97 122 2.0 11.0 0.00 0.00 0.00 44 1010.6
20260903223059 98 0 1.0 11.0 0.00 0.00 0.00 43 1010.5
20260903221613 98 360 2.0 9.0 0.00 0.00 0.00 42 1010.5
20260903220113 98 0 2.0 8.0 0.00 0.00 0.00 41 1010.5
20260903214614 98 132 3.0 13.0 0.00 0.00 0.00 42 1010.7
20260903213102 99 61 4.0 10.0 0.00 0.00 0.00 39 1010.9
20260903211611 100 51 1.0 7.0 0.00 0.00 0.00 40 1010.9
20260903204602 100 137 1.0 10.0 0.00 0.00 0.00 40 1011.1
20260903203103 100 178 2.0 11.0 0.00 0.00 0.00 39 1011.2
20260903201609 99 62 2.0 11.0 0.00 0.00 0.00 40 1011.3
20260903200112 100 156 2.0 8.0 0.00 0.00 0.00 39 1011.4
20260903194603 100 0 1.0 12.0 0.00 0.00 0.00 39 1011.5
20260903193059 99 140 2.0 10.0 0.00 0.00 0.00 41 1011.8
20260903191559 99 97 2.0 7.0 0.00 0.00 0.00 41 1012.1
20260903190106 99 135 1.0 9.0 0.00 0.00 0.00 41 1012.2
20260903184601 99 174 2.0 8.0 0.00 0.00 0.00 42 1012.3
20260903183100 98 170 1.0 8.0 0.00 0.00 0.00 44 1012.5
20260903181603 97 158 2.0 8.0 0.00 0.00 0.00 45 1012.7
20260903174558 97 36 1.0 8.0 0.00 0.00 0.00 46 1013.3
20260903173101 96 204 1.0 7.0 0.00 0.00 0.00 48 1013.5
20260903171606 95 128 1.0 6.0 0.00 0.00 0.00 48 1013.7
20260903170106 95 109 2.0 9.0 0.00 0.00 0.00 50 1013.9
20260903164609 94 202 1.0 9.0 0.00 0.00 0.00 52 1014.2
20260903163100 92 292 1.0 10.0 0.00 0.00 0.00 53 1014.2
20260903161605 93 94 1.0 7.0 0.00 0.00 0.00 54 1014.1
20260903160058 91 65 2.0 10.0 0.00 0.00 0.00 56 1014.2
20260903154601 90 234 1.0 7.0 0.00 0.00 0.00 58 1014.2
20260903153130 88 200 2.0 9.0 0.00 0.00 0.00 59 1014.3
20260903151616 89 205 1.0 7.0 0.00 0.00 0.00 60 1014.4
20260903150112 87 0 1.0 6.0 0.00 0.00 0.00 62 1014.6
20260903144559 86 196 1.0 6.0 0.00 0.00 0.00 64 1014.6
20260903143107 85 134 1.0 9.0 0.00 0.00 0.00 66 1014.7
20260903141601 85 0 1.0 6.0 0.00 0.00 0.00 68 1014.9
20260903134609 82 170 0.0 3.0 0.00 0.00 0.00 73 1014.9
20260903133107 81 0 0.0 3.0 0.00 0.00 0.00 74 1014.9
20260903131602 79 0 0.0 3.0 0.00 0.00 0.00 77 1014.9
20260903124603 75 0 0.0 3.0 0.00 0.00 0.00 83 1014.6
20260903123105 74 0 0.0 3.0 0.00 0.00 0.00 83 1014.3
20260903121611 74 0 0.0 2.0 0.00 0.00 0.00 83 1014.2
20260903120104 74 0 0.0 3.0 0.00 0.00 0.00 83 1014.2
20260903114601 74 111 0.0 3.0 0.00 0.00 0.00 82 1014.1
20260903113059 75 0 0.0 2.0 0.00 0.00 0.00 81 1014.0
20260903111608 75 0 0.0 0.0 0.00 0.00 0.00 81 1014.0
20260903110100 75 0 0.0 2.0 0.00 0.00 0.00 80 1013.9
20260903104623 76 0 0.0 1.0 0.00 0.00 0.00 79 1013.8
20260903103105 76 0 0.0 1.0 0.00 0.00 0.00 79 1013.8
20260903101600 76 0 0.0 1.0 0.00 0.00 0.00 78 1013.8
20260903100104 77 0 0.0 0.0 0.00 0.00 0.00 76 1013.9
20260903094606 77 0 0.0 0.0 0.00 0.00 0.00 75 1013.9
20260903093109 78 0 0.0 0.0 0.00 0.00 0.00 74 1013.9
20260903091605 78 0 0.0 1.0 0.00 0.00 0.00 74 1013.8
20260903090104 79 0 0.0 0.0 0.00 0.00 0.00 72 1013.7
20260903084600 79 0 0.0 0.0 0.00 0.00 0.00 70 1013.7
20260903083107 80 0 0.0 2.0 0.00 0.00 0.00 70 1013.6
20260903081635 80 0 0.0 2.0 0.00 0.00 0.00 70 1013.6
20260903080136 80 0 0.0 1.0 0.00 0.00 0.00 70 1013.6
20260903074558 80 0 0.0 1.0 0.00 0.00 0.00 69 1013.6
20260903073107 80 0 0.0 1.0 0.00 0.00 0.00 68 1013.7
20260903071603 81 0 0.0 1.0 0.00 0.00 0.00 68 1013.6
20260903070100 81 0 0.0 1.0 0.00 0.00 0.00 67 1013.5
20260903064603 81 0 0.0 2.0 0.00 0.00 0.00 67 1013.5
20260903063109 80 0 0.0 1.0 0.00 0.00 0.00 68 1013.4
20260903061605 80 0 0.0 2.0 0.00 0.00 0.00 69 1013.3
20260903060108 80 0 0.0 0.0 0.00 0.00 0.00 69 1013.2
20260903054614 80 0 0.0 1.0 0.00 0.00 0.00 69 1013.2
20260903053103 81 0 0.0 0.0 0.00 0.00 0.00 67 1013.1
20260903051607 81 0 0.0 0.0 0.00 0.00 0.00 65 1013.0
20260903044604 82 0 0.0 0.0 0.00 0.00 0.00 67 1012.8